TimeEST,TemperatureF,Dew PointF,Humidity,Sea Level PressureIn,VisibilityMPH,Wind Direction,Wind SpeedMPH,Gust SpeedMPH,PrecipitationIn,Events,Conditions,WindDirDegrees,DateUTC
12:53 AM,63.0,61.0,93,30.04,10.0,Calm,Calm,-,N/A,,Clear,0,2012-12-19 05:53:00
1:53 AM,62.1,60.1,93,30.04,9.0,Calm,Calm,-,N/A,,Clear,0,2012-12-19 06:53:00
2:53 AM,61.0,57.9,90,30.04,10.0,Calm,Calm,-,N/A,,Clear,0,2012-12-19 07:53:00
3:53 AM,60.1,57.0,90,30.04,10.0,North,4.6,-,N/A,,Clear,10,2012-12-19 08:53:00
4:53 AM,57.9,54.0,87,30.04,10.0,NE,4.6,-,N/A,,Clear,50,2012-12-19 09:53:00
5:53 AM,57.0,52.0,83,30.05,10.0,ENE,3.5,-,N/A,,Clear,60,2012-12-19 10:53:00
6:53 AM,55.9,53.1,90,30.06,10.0,Calm,Calm,-,N/A,,Clear,0,2012-12-19 11:53:00
7:53 AM,57.0,53.1,87,30.08,10.0,NE,4.6,-,N/A,,Clear,50,2012-12-19 12:53:00
8:53 AM,62.1,53.1,72,30.10,10.0,ENE,6.9,-,N/A,,Clear,70,2012-12-19 13:53:00
9:53 AM,66.9,51.1,57,30.12,10.0,East,5.8,-,N/A,,Clear,80,2012-12-19 14:53:00
10:53 AM,72.0,50.0,46,30.12,10.0,ENE,5.8,-,N/A,,Clear,70,2012-12-19 15:53:00
11:53 AM,75.9,52.0,43,30.10,10.0,NNE,3.5,-,N/A,,Clear,20,2012-12-19 16:53:00
12:53 PM,77.0,54.0,45,30.06,10.0,Calm,Calm,-,N/A,,Clear,0,2012-12-19 17:53:00
1:53 PM,80.1,54.0,40,30.04,10.0,Calm,Calm,-,N/A,,Clear,0,2012-12-19 18:53:00
2:53 PM,80.1,55.0,42,30.04,10.0,NW,4.6,-,N/A,,Clear,310,2012-12-19 19:53:00
3:53 PM,81.0,51.1,35,30.04,10.0,NW,4.6,-,N/A,,Clear,320,2012-12-19 20:53:00
4:53 PM,80.1,50.0,35,30.04,10.0,Calm,Calm,-,N/A,,Clear,0,2012-12-19 21:53:00
5:53 PM,73.0,55.9,55,30.05,10.0,Calm,Calm,-,N/A,,Clear,0,2012-12-19 22:53:00
6:53 PM,70.0,57.9,65,30.06,10.0,NNW,3.5,-,N/A,,Clear,330,2012-12-19 23:53:00
7:53 PM,66.0,57.9,75,30.07,10.0,East,3.5,-,N/A,,Clear,90,2012-12-20 00:53:00
8:53 PM,64.9,57.0,75,30.07,10.0,Calm,Calm,-,N/A,,Clear,0,2012-12-20 01:53:00
9:53 PM,64.0,57.0,78,30.07,10.0,Calm,Calm,-,N/A,,Clear,0,2012-12-20 02:53:00
10:53 PM,61.0,55.9,83,30.08,10.0,Calm,Calm,-,N/A,,Clear,0,2012-12-20 03:53:00
11:53 PM,62.1,55.0,78,30.07,10.0,East,3.5,-,N/A,,Clear,90,2012-12-20 04:53:00